Location: Batang Balui
(2.7000°N, 113.7833°E)
Time: 20:21:31
(UTC+00:00)

Delta 2 Rocket - Pass Details

Date: 04 July 2022
Orbit: 413 x 781 km, 35.6° (Epoch: 09 August)

Event Time Altitude Azimuth Distance (km) Brightness Sun altitude
Exits shadow 21:18:16 20° 215° (SW) 1,524 5.1 -15.2°
Drops below altitude 10° 21:21:58 10° 168° (SSE) 2,172 6.2 -14.4°
Sets 21:25:05 0° 152° (SSE) 3,153 7.2 -13.7°
